Date,TemperatureHighF,TemperatureAvgF,TemperatureLowF,DewpointHighF,DewpointAvgF,DewpointLowF,HumidityHigh,HumidityAvg,HumidityLow,PressureMaxIn,PressureMinIn,WindSpeedMaxMPH,WindSpeedAvgMPH,GustSpeedMaxMPH,PrecipitationSumIn
2013-1-1,56,48,40,55,45,35,97,90,80,30.24,29.95,7,2,15,0.22
2013-1-2,43,38,34,36,31,29,85,75,61,30.35,30.24,4,2,13,0.01
2013-1-3,46,40,32,34,31,29,90,73,59,30.46,30.33,4,1,11,0.00
2013-1-4,44,40,37,40,37,32,95,89,62,30.53,30.39,3,1,7,0.25
2013-1-5,54,44,37,44,40,35,95,85,66,30.40,30.23,2,0,7,0.05
2013-1-6,58,44,33,37,34,31,96,74,36,30.40,30.28,5,1,13,0.01
2013-1-7,54,44,32,41,35,29,89,72,51,30.32,30.07,4,1,9,0.00
2013-1-8,53,50,47,52,48,42,97,94,73,30.07,29.87,6,1,11,0.51
2013-1-9,59,56,51,57,54,50,97,96,91,29.99,29.82,5,1,15,1.69
2013-1-10,64,53,47,51,47,44,97,80,52,30.04,29.96,2,0,7,0.02
2013-1-11,73,60,43,65,54,41,95,84,61,30.00,29.80,7,2,21,0.01
2013-1-12,73,67,48,69,63,37,97,87,62,29.86,29.62,6,2,15,0.00
2013-1-13,51,44,38,38,32,26,73,61,49,30.18,29.85,7,3,19,0.00
2013-1-14,49,41,35,33,29,25,71,63,50,30.26,30.10,6,4,16,0.00
2013-1-15,42,37,35,35,33,26,94,85,65,30.25,30.10,6,2,18,0.01
2013-1-16,52,39,29,27,24,19,76,55,29,30.36,30.19,2,0,9,0.02
2013-1-17,64,48,33,39,33,25,78,58,35,30.48,30.29,4,0,11,0.01
2013-1-18,63,48,34,38,34,31,89,63,34,30.51,30.32,5,1,10,0.00
2013-1-19,67,51,38,49,42,34,95,73,45,30.32,30.14,5,1,15,0.00
2013-1-20,72,56,41,54,46,39,95,72,39,30.23,30.07,3,0,10,0.00
2013-1-21,71,58,46,54,48,42,93,72,51,30.22,30.11,3,0,7,0.00
2013-1-22,71,56,43,52,46,38,86,70,50,30.30,30.17,5,1,12,0.00
2013-1-23,73,59,46,59,53,44,97,82,56,30.32,30.18,5,1,12,0.00
2013-1-24,76,67,59,63,60,56,94,80,59,30.22,30.07,6,1,14,0.00
2013-1-25,78,67,56,63,60,49,93,79,57,30.12,29.99,5,2,15,0.00
2013-1-26,65,56,52,59,53,48,95,89,78,30.17,30.04,3,1,8,0.00
2013-1-27,78,67,57,66,62,55,96,85,64,30.09,29.92,7,3,18,0.00
2013-1-28,76,71,68,67,66,65,92,83,72,30.00,29.83,8,5,21,0.00
2013-1-29,82,70,58,67,58,27,90,68,30,29.84,29.47,8,3,20,0.00
2013-1-30,57,51,39,31,23,17,53,34,21,30.20,29.77,3,1,14,0.00
2013-1-31,67,57,39,27,23,20,53,28,17,30.29,30.17,4,1,14,0.00
2013-2-1,70,57,43,43,37,26,78,49,29,30.34,30.16,7,2,14,0.00
2013-2-2,75,59,42,56,47,39,90,66,40,30.28,30.14,4,0,11,0.00
2013-2-3,70,59,44,48,40,29,78,52,22,30.32,30.01,7,2,16,0.00
2013-2-4,73,63,56,60,56,48,92,80,59,30.02,29.78,5,1,18,0.00
2013-2-5,77,64,53,56,48,41,95,62,28,29.96,29.84,3,0,9,0.00
2013-2-6,74,64,58,62,58,50,95,80,57,29.97,29.80,5,2,13,0.06
2013-2-7,82,67,59,62,55,40,93,70,34,30.06,29.81,4,1,12,0.01
2013-2-8,68,58,48,48,36,25,73,47,20,30.21,30.05,7,2,16,0.00
2013-2-9,68,58,53,66,55,36,96,88,47,30.08,29.76,9,3,17,0.04
2013-2-10,68,62,55,67,48,32,96,65,29,29.99,29.70,6,1,17,0.07
2013-2-11,57,54,51,50,47,42,92,77,58,30.06,29.95,6,2,14,0.13
2013-2-12,70,58,50,58,47,27,96,73,25,30.04,29.80,5,1,11,0.03
2013-2-13,62,50,40,41,35,30,81,59,33,30.14,30.02,5,1,12,0.01
2013-2-14,70,54,37,42,36,34,89,57,28,30.12,29.98,5,1,10,0.00
2013-2-15,61,50,40,41,37,26,84,61,45,30.38,30.06,7,2,20,0.00
2013-2-16,65,50,35,33,28,25,69,47,26,30.45,30.21,3,0,11,0.00
2013-2-17,69,55,36,52,37,29,79,53,29,30.21,29.96,9,3,20,0.00
2013-2-18,80,67,58,61,48,29,83,57,17,30.06,29.80,8,3,19,0.00
2013-2-19,67,57,45,34,31,22,65,39,18,30.25,30.06,7,2,15,0.00
2013-2-20,63,57,53,62,47,33,96,73,42,30.11,29.65,7,2,14,0.04
2013-2-21,77,67,53,66,44,19,96,54,12,29.83,29.55,9,2,17,0.04
2013-2-22,58,50,44,40,35,29,76,56,39,30.04,29.82,6,2,14,0.01
2013-2-23,70,53,40,40,34,29,68,50,28,30.06,29.86,5,1,11,0.00
2013-2-24,72,57,38,58,46,34,89,69,48,29.92,29.57,10,3,19,0.00
2013-2-25,63,56,47,59,38,20,95,56,19,29.80,29.52,5,2,19,0.01
2013-2-26,66,53,40,32,30,28,64,44,25,29.95,29.80,5,1,13,0.01
2013-2-27,63,53,44,35,29,22,57,41,24,30.22,29.85,7,2,19,0.00
2013-2-28,61,49,41,31,27,22,61,44,25,30.33,30.18,6,1,15,0.00
2013-3-1,68,51,34,30,26,18,73,42,16,30.29,30.11,6,1,11,0.00
2013-3-2,62,50,40,32,29,23,66,47,26,30.42,30.26,6,1,16,0.00
2013-3-3,73,57,39,44,33,26,67,44,23,30.27,29.90,9,3,24,0.00
2013-3-4,85,68,53,56,48,42,84,54,24,29.90,29.66,7,4,20,0.00
2013-3-5,65,57,45,57,28,8,84,39,12,30.35,29.72,10,4,27,0.00
2013-3-6,62,50,39,27,20,14,49,33,15,30.45,30.21,7,1,12,0.00
2013-3-7,73,56,39,54,42,25,75,60,41,30.24,30.08,8,3,17,0.00
2013-3-8,67,61,56,64,57,51,97,87,72,30.12,29.98,7,2,14,0.20
2013-3-9,72,66,61,66,62,58,95,89,78,30.01,29.64,9,5,21,0.03
2013-3-10,67,60,49,64,44,33,94,60,35,30.11,29.67,6,2,19,0.62
2013-3-11,66,51,38,36,29,20,74,48,19,30.18,30.00,5,1,12,0.21
2013-3-12,77,59,41,44,34,28,72,43,18,30.23,30.05,6,2,17,0.00
2013-3-13,74,61,46,41,38,33,69,44,26,30.42,30.23,5,1,11,0.00
2013-3-14,77,63,50,55,47,41,86,59,32,30.36,30.19,7,2,15,0.00
2013-3-15,79,66,53,56,49,40,94,59,26,30.22,29.96,8,3,18,0.00
2013-3-16,83,68,58,62,56,52,92,70,36,29.98,29.70,7,4,21,0.00
2013-3-17,81,71,65,65,61,59,89,72,48,29.77,29.61,7,3,17,0.00
2013-3-18,88,74,64,66,55,42,92,60,21,29.91,29.67,6,2,16,0.00
2013-3-19,82,67,51,64,54,45,80,63,49,29.98,29.81,6,2,14,0.07
2013-3-20,71,61,53,57,47,36,94,64,32,30.22,29.96,11,3,23,0.15
2013-3-21,75,64,53,60,52,40,81,68,52,30.02,29.58,8,3,19,0.07
2013-3-22,83,71,58,66,62,48,95,75,51,29.74,29.60,6,2,16,0.00
2013-3-23,77,62,52,61,53,47,87,74,56,29.77,29.56,5,2,13,0.00
2013-3-24,63,53,44,59,34,23,92,52,27,30.16,29.67,10,3,23,0.00
2013-3-25,59,48,37,28,22,17,59,39,21,30.39,30.15,7,2,17,0.00
2013-3-26,63,50,32,26,23,19,74,39,19,30.48,30.29,4,1,9,0.00
2013-3-27,68,55,37,48,38,24,75,54,37,30.32,30.14,8,2,18,0.00
2013-3-28,73,63,53,59,55,48,88,76,61,30.18,30.09,7,2,16,0.00
2013-3-29,77,67,59,61,58,56,94,73,51,30.15,30.02,6,3,16,0.00
2013-3-30,83,71,64,64,60,-100,91,72,48,30.08,29.85,6,2,14,0.00
2013-3-31,79,70,63,66,63,59,90,79,61,29.93,29.80,5,2,13,0.02
2013-4-1,85,72,60,65,61,57,91,73,47,30.01,29.85,6,1,15,0.02
2013-4-2,75,67,61,67,63,60,96,88,73,29.96,29.76,11,2,37,2.06
2013-4-3,62,52,49,61,51,47,97,95,93,30.13,29.77,7,1,15,2.31
2013-4-4,60,51,46,47,44,41,94,79,58,30.22,30.09,5,1,14,0.10
2013-4-5,70,55,39,49,44,37,95,69,44,30.27,30.05,4,1,11,0.06
2013-4-6,79,65,51,59,54,48,91,70,48,30.06,29.82,7,3,17,0.01
2013-4-7,81,69,62,65,61,58,92,78,55,29.89,29.72,8,4,19,0.01
2013-4-8,75,70,66,67,64,61,90,84,73,29.80,29.64,8,4,17,0.01
2013-4-9,84,74,70,70,67,66,89,80,60,29.68,29.55,9,5,20,0.00
2013-4-10,74,57,45,69,53,42,94,85,71,29.93,29.59,10,4,20,0.00
2013-4-11,65,53,43,44,41,39,88,65,40,29.98,29.80,6,2,16,0.00
2013-4-12,79,62,44,50,44,41,91,58,27,29.99,29.83,5,1,11,0.00
2013-4-13,75,65,51,59,52,48,91,66,40,29.93,29.75,5,1,11,0.00
2013-4-14,85,71,58,68,62,55,94,75,53,29.80,29.57,5,1,13,0.00
2013-4-15,87,76,69,69,67,65,93,75,51,29.76,29.65,7,3,18,0.00
2013-4-16,83,75,69,70,67,63,87,76,62,29.85,29.76,8,4,16,0.00
2013-4-17,81,75,72,72,70,68,94,85,66,29.83,29.63,9,5,18,0.02
2013-4-18,74,62,50,72,54,38,93,77,50,30.09,29.60,10,4,18,0.18
2013-4-19,67,56,44,39,32,24,71,44,21,30.29,30.07,8,3,19,0.01
2013-4-20,71,57,40,47,35,30,80,48,23,30.22,29.98,7,2,16,0.00
2013-4-21,76,63,49,58,52,45,89,69,48,30.13,29.98,5,1,11,0.00
2013-4-22,82,70,56,62,59,54,95,71,47,30.08,29.83,6,2,18,0.00
2013-4-23,77,66,52,67,59,42,88,78,60,30.09,29.81,7,2,18,0.00
2013-4-24,63,53,45,42,39,34,82,59,41,30.25,30.09,9,4,23,0.00
2013-4-25,67,61,55,48,44,41,63,55,44,30.32,30.16,5,2,11,0.00
2013-4-26,77,68,59,70,63,44,97,83,49,30.16,29.98,6,2,18,0.03
2013-4-27,82,74,67,69,67,65,93,81,63,30.05,29.88,4,1,12,0.21
2013-4-28,82,72,63,65,63,58,96,75,45,30.00,29.81,5,1,12,0.22
2013-4-29,82,71,66,68,64,61,94,81,56,29.90,29.75,9,1,21,0.01
2013-4-30,81,72,63,67,64,61,95,79,56,29.82,29.68,6,1,11,0.00
2013-5-1,85,75,67,68,66,64,91,75,56,29.90,29.74,4,1,13,0.00
2013-5-2,76,57,48,66,49,36,91,77,60,30.32,29.88,8,3,23,0.02
2013-5-3,68,55,44,37,32,27,68,45,21,30.33,30.07,8,2,22,0.02
2013-5-4,82,65,47,42,36,31,70,38,16,30.09,29.84,4,0,9,0.00
2013-5-5,75,64,51,49,43,36,63,47,34,30.12,29.95,6,2,14,0.00
2013-5-6,73,62,49,51,48,44,85,62,44,30.13,29.98,2,0,6,0.00
2013-5-7,84,69,50,57,52,47,90,59,32,30.06,29.90,6,1,12,0.00
2013-5-8,82,72,63,65,62,55,92,72,51,29.98,29.84,7,3,16,0.00
2013-5-9,77,70,66,71,66,63,94,86,77,29.93,29.81,6,2,14,0.02
2013-5-10,85,70,62,67,61,-100,95,80,42,30.01,29.77,11,2,26,2.11
2013-5-11,80,70,61,64,57,-100,96,69,41,30.11,29.96,7,2,17,1.98
2013-5-12,80,69,57,57,51,43,79,56,31,30.22,30.09,5,1,12,0.00
2013-5-13,83,70,52,59,52,47,86,56,33,30.24,30.11,6,1,12,0.00
2013-5-14,84,72,59,67,62,56,91,70,49,30.19,29.96,7,2,17,0.00
2013-5-15,84,74,66,73,68,63,95,83,62,30.06,29.79,9,3,24,0.12
2013-5-16,90,73,70,73,50,-100,94,77,51,29.82,29.66,9,3,19,0.01
2013-5-17,92,80,74,74,67,-100,89,75,53,29.84,29.74,7,3,16,0.01
2013-5-18,92,80,71,73,69,64,93,70,46,29.87,29.76,8,3,21,0.00
2013-5-19,90,80,72,73,70,66,88,72,53,29.80,29.67,8,4,18,0.00
2013-5-20,91,80,72,72,70,66,92,73,53,29.79,29.64,9,4,20,0.00
2013-5-21,87,79,71,75,70,60,90,77,62,29.84,29.64,8,3,19,0.02
2013-5-22,90,76,60,73,63,57,92,66,41,29.89,29.76,4,1,10,0.02
2013-5-23,88,80,74,73,71,70,89,76,59,29.99,29.83,6,2,14,0.00
2013-5-24,80,73,68,73,70,66,96,90,76,30.08,29.96,5,1,27,2.31
2013-5-25,80,73,68,72,70,66,97,91,68,30.11,30.00,8,2,16,0.66
2013-5-26,83,77,72,74,71,67,96,82,67,30.05,29.93,10,3,19,0.39
2013-5-27,87,78,70,72,70,67,94,78,60,29.99,29.79,8,3,18,0.04
2013-5-28,88,79,73,72,70,69,89,76,56,29.87,29.72,10,4,20,0.00
2013-5-29,84,78,72,73,71,70,92,81,65,29.83,29.67,10,5,22,0.04
2013-5-30,88,80,75,74,72,71,89,78,61,29.79,29.70,6,3,17,0.01
2013-5-31,89,81,76,75,73,71,90,78,61,29.83,29.70,6,3,16,0.00
2013-6-1,91,83,75,76,73,72,89,74,55,29.84,29.74,6,2,16,0.00
2013-6-2,86,77,67,73,66,58,92,72,40,30.02,29.84,6,1,15,0.04
2013-6-3,89,78,63,68,64,58,92,66,35,29.95,29.79,3,0,8,0.01
2013-6-4,91,80,69,71,68,62,94,68,40,29.86,29.74,4,1,14,0.00
2013-6-5,91,80,69,71,68,65,93,68,44,29.85,29.70,8,1,18,0.00
2013-6-6,93,81,70,72,68,64,92,68,42,29.89,29.72,8,1,16,0.00
2013-6-7,84,76,69,66,61,55,84,62,38,29.96,29.83,6,1,12,0.00
2013-6-8,88,77,62,71,64,57,84,65,52,29.90,29.74,5,1,14,0.00
2013-6-9,87,80,70,73,71,66,90,75,56,29.92,29.79,5,1,17,0.00
2013-6-10,93,82,70,73,70,67,95,71,45,29.94,29.85,4,0,11,0.00
2013-6-11,91,81,74,74,71,67,93,73,51,29.99,29.90,7,1,17,0.00
2013-6-12,92,82,74,75,72,69,92,74,52,30.01,29.90,7,1,14,0.00
2013-6-13,93,81,76,75,72,67,92,77,49,30.02,29.89,3,0,11,0.00
2013-6-14,87,81,74,75,73,70,91,78,63,29.96,29.85,3,0,8,0.00
2013-6-15,86,81,77,76,74,72,92,79,66,29.95,29.85,3,0,10,0.00
2013-6-16,93,84,75,75,72,67,92,68,43,29.98,29.84,3,1,12,0.00
2013-6-17,94,84,76,74,72,67,89,68,43,29.96,29.79,4,1,13,0.00
2013-6-18,92,82,70,74,70,64,93,68,43,29.97,29.82,4,0,10,0.03
2013-6-19,94,85,75,74,70,65,92,64,42,29.93,29.84,5,1,17,0.03
2013-6-20,94,81,74,74,71,66,93,73,42,30.01,29.89,8,2,17,0.00
2013-6-22,95,91,82,72,67,64,70,46,37,30.00,29.83,8,3,17,0.00
2013-6-23,95,84,76,74,68,59,88,62,34,29.94,29.84,7,3,17,0.00
2013-6-24,96,84,75,75,70,66,91,66,39,29.98,29.84,8,3,20,0.00
2013-6-25,97,86,76,74,69,63,90,62,35,29.95,29.81,7,3,17,0.00
2013-6-26,98,86,76,74,70,65,86,63,35,29.92,29.81,6,3,16,0.00
2013-6-27,98,87,75,74,67,56,87,57,26,29.98,29.84,6,1,13,0.00
2013-6-28,102,88,74,72,68,62,89,55,28,29.95,29.75,2,0,10,0.00
2013-6-29,104,92,77,70,63,55,67,42,21,29.81,29.68,5,1,15,0.00
2013-6-30,94,83,70,70,66,58,92,60,34,29.90,29.75,4,0,11,0.14
2013-7-1,89,81,71,67,57,53,63,45,30,29.96,29.83,8,2,20,0.07
2013-7-2,91,79,67,62,55,49,70,46,24,30.03,29.91,6,1,13,0.00
2013-7-3,92,82,66,61,52,47,69,39,23,29.99,29.85,5,1,14,0.00
2013-7-4,92,81,67,70,60,52,85,53,27,29.95,29.83,4,0,9,0.00
2013-7-5,95,84,69,70,63,58,86,53,29,29.94,29.78,5,1,16,0.00
2013-7-6,96,82,70,72,67,60,85,63,31,29.89,29.76,6,1,14,0.00
2013-7-7,97,83,75,75,71,61,89,70,37,29.93,29.78,6,1,14,0.43
2013-7-8,87,80,76,74,71,-100,89,77,54,30.06,29.93,4,1,13,0.42
2013-7-9,98,85,74,74,71,66,92,67,39,30.10,29.94,6,2,13,0.00
2013-7-10,97,85,74,74,68,-100,92,62,37,30.04,29.85,4,1,17,0.00
2013-7-11,97,86,75,74,68,61,88,59,31,29.96,29.81,4,1,13,0.00
2013-7-12,98,87,74,73,67,58,87,55,29,29.92,29.80,4,1,14,0.00
2013-7-13,101,89,74,70,64,57,80,48,26,29.93,29.77,4,1,12,0.00
2013-7-14,95,83,77,73,67,61,87,59,34,29.86,29.80,9,1,21,0.02
2013-7-15,77,73,71,74,70,67,96,92,74,30.00,29.85,3,1,9,0.81
2013-7-16,90,78,71,76,70,66,97,79,48,30.09,29.98,5,1,17,0.36
2013-7-17,87,76,72,74,71,69,96,87,58,30.14,30.05,8,1,15,1.19
2013-7-18,92,78,72,75,71,68,97,81,47,30.13,29.96,7,1,15,0.36
2013-7-19,94,81,71,74,69,64,95,70,38,30.03,29.85,2,0,15,0.12
2013-7-20,92,80,73,74,69,-100,93,72,48,29.96,29.81,3,0,15,0.00
2013-7-21,92,82,74,75,73,71,94,78,53,29.91,29.83,7,1,19,0.00
2013-7-22,94,84,77,76,73,69,92,72,44,29.94,29.83,7,2,16,0.00
2013-7-23,95,85,77,75,71,66,89,67,40,29.96,29.81,5,2,15,0.00
2013-7-24,92,84,75,76,72,69,90,71,48,29.96,29.82,4,1,15,0.00
2013-7-25,96,85,75,74,70,63,93,64,34,29.97,29.89,5,0,11,0.00
2013-7-26,95,85,75,76,72,68,93,68,43,29.97,29.81,4,1,16,0.00
2013-7-27,86,79,74,76,72,68,96,82,61,29.95,29.84,5,1,12,0.47
2013-7-28,95,84,74,76,71,68,87,69,46,29.91,29.78,6,1,13,0.01
2013-7-29,97,86,77,74,70,62,87,64,33,29.98,29.88,9,3,18,0.00
2013-7-30,97,86,76,74,71,63,90,65,34,30.05,29.91,5,2,14,0.00
2013-7-31,99,86,74,73,68,59,92,61,28,30.04,29.87,2,0,9,0.00
2013-8-1,101,89,75,72,68,65,85,54,32,29.98,29.83,3,0,10,0.00
2013-8-2,98,88,75,72,68,63,77,55,33,29.93,29.81,4,1,16,0.00
2013-8-3,98,87,76,74,70,63,89,60,32,29.97,29.86,6,1,12,0.00
2013-8-4,97,87,77,76,72,68,91,64,39,30.02,29.86,4,1,13,0.00
2013-8-5,99,87,74,74,69,62,90,60,32,29.98,29.81,6,1,13,0.00
2013-8-6,101,88,75,75,70,63,89,61,31,29.90,29.74,5,2,15,0.00
2013-8-7,100,89,77,75,70,58,86,58,25,29.88,29.72,6,2,15,0.00
2013-8-8,100,87,76,73,69,57,85,60,24,29.85,29.71,4,2,16,0.00
2013-8-9,99,86,74,73,66,55,93,58,24,29.92,29.79,3,0,12,0.00
2013-8-10,100,87,75,72,70,64,84,59,32,29.99,29.85,3,0,11,0.00
2013-8-11,96,84,76,75,71,66,87,67,38,30.03,29.90,5,0,17,0.00
2013-8-12,96,85,74,73,70,65,92,65,37,30.02,29.88,4,1,10,0.00
2013-8-13,99,86,76,74,67,-100,90,58,31,29.99,29.82,4,1,11,0.00
2013-8-14,99,85,77,73,68,-100,84,63,35,29.95,29.82,7,1,15,0.00
2013-8-15,93,75,72,76,58,-100,94,71,49,29.97,29.85,4,1,11,0.52
2013-8-16,93,78,71,75,66,-100,97,73,39,30.01,29.86,3,0,11,0.70
2013-8-17,92,80,71,69,63,-100,91,61,35,30.01,29.88,4,1,13,0.01
2013-8-18,94,81,67,70,61,57,82,54,31,30.01,29.92,3,0,10,0.00
2013-8-19,92,78,69,68,52,-100,83,55,36,30.01,29.86,3,0,12,0.00
2013-8-20,94,81,70,71,65,-100,90,63,33,29.99,29.88,6,1,15,0.00
2013-8-21,94,82,72,74,70,66,90,70,42,30.03,29.91,5,1,13,0.00
2013-8-22,95,84,73,74,70,67,90,65,43,30.04,29.86,3,0,10,0.00
2013-8-23,96,85,73,75,70,65,91,63,37,29.98,29.83,3,0,11,0.00
2013-8-24,98,86,76,73,67,-100,82,57,37,29.99,29.86,4,0,12,0.00
2013-8-25,93,84,74,73,70,67,85,64,45,30.03,29.95,4,2,15,0.00
2013-8-26,89,79,72,72,71,69,94,76,52,30.08,29.98,5,1,12,0.04
2013-8-27,84,75,72,75,71,68,96,90,58,30.08,30.01,6,1,12,0.08
2013-8-28,95,91,82,72,68,66,64,48,40,30.07,29.95,2,0,9,0.01
2013-8-29,99,87,75,72,67,62,86,56,31,30.04,29.89,1,0,7,0.00
2013-8-30,101,88,75,69,65,59,75,50,28,29.97,29.81,2,0,10,0.00
2013-8-31,100,87,75,72,67,-100,82,54,33,29.89,29.75,2,0,10,0.00
2013-9-1,99,87,75,74,69,65,86,58,35,29.86,29.74,5,0,11,0.00
2013-9-2,100,87,75,75,69,62,89,60,30,29.92,29.77,3,0,9,0.00
2013-9-3,100,88,73,71,67,62,82,53,30,29.95,29.81,1,0,8,0.00
2013-9-4,98,86,71,74,69,65,90,61,35,29.98,29.86,5,0,13,0.09
2013-9-5,96,82,71,75,70,67,94,71,40,30.06,29.93,3,0,16,0.07
2013-9-6,95,84,73,74,71,65,91,67,38,30.04,29.89,3,0,12,0.01
2013-9-7,96,80,74,75,69,-100,91,74,39,29.99,29.84,6,0,14,0.06
2013-9-8,91,79,72,74,71,69,95,79,50,29.95,29.83,5,0,11,0.07
2013-9-9,92,78,70,73,70,67,94,80,47,29.95,29.86,6,0,18,0.06
2013-9-10,92,78,71,75,71,68,96,80,49,30.03,29.93,9,1,18,0.07
2013-9-11,92,82,75,74,70,63,91,70,40,30.06,29.93,5,1,11,0.01
2013-9-12,93,83,71,73,68,63,93,64,38,30.02,29.86,3,0,10,0.00
2013-9-13,95,84,72,71,66,61,88,57,33,29.92,29.76,5,0,14,0.00
2013-9-14,94,83,71,71,64,-100,81,57,38,29.89,29.78,6,1,13,0.00
2013-9-15,93,83,74,73,70,66,90,67,45,29.95,29.87,3,0,10,0.00
2013-9-16,91,81,76,74,72,70,89,74,51,30.01,29.91,5,1,11,0.00
2013-9-17,90,80,73,75,72,70,94,78,52,30.02,29.88,3,1,12,0.00
2013-9-18,80,76,73,73,71,70,91,85,75,29.97,29.90,0,0,3,0.00
2013-9-19,90,81,76,78,73,71,89,79,57,29.91,29.76,3,1,11,0.12
2013-9-20,79,75,70,77,72,68,96,93,84,29.83,29.73,7,1,16,2.64
2013-9-21,83,73,67,68,59,-100,95,68,33,29.90,29.80,7,3,17,0.06
2013-9-22,84,72,60,57,52,45,77,53,26,29.88,29.75,5,1,14,0.01
2013-9-23,87,72,57,59,55,48,88,59,26,29.81,29.72,0,0,8,0.00
2013-9-24,94,79,64,66,60,57,83,56,29,29.88,29.78,4,0,11,0.00
2013-9-25,94,81,66,66,62,59,83,54,34,29.86,29.73,3,0,9,0.00
2013-9-26,90,79,68,73,64,57,81,62,38,29.85,29.77,6,1,14,0.00
2013-9-27,89,80,76,76,74,72,92,82,61,29.87,29.78,6,2,15,0.01
2013-9-28,91,80,76,77,72,-100,93,82,56,29.93,29.83,5,1,15,0.05
2013-9-29,75,70,65,72,67,64,96,90,77,30.02,29.90,6,1,13,2.04
2013-9-30,87,74,61,65,61,55,95,67,35,29.93,29.77,1,0,5,0.01
2013-10-1,85,79,76,72,71,69,88,76,64,29.88,29.80,4,1,11,0.00
2013-10-2,89,80,73,75,72,70,94,78,55,29.92,29.80,5,1,14,0.00
2013-10-3,89,81,75,75,72,68,93,75,54,29.89,29.78,4,2,13,0.00
2013-10-4,89,80,72,73,71,69,95,77,55,29.88,29.78,6,2,16,0.00
2013-10-5,88,76,62,73,65,43,94,72,48,30.03,29.84,6,1,17,0.00
2013-10-6,79,65,54,56,48,37,94,60,23,30.11,30.01,5,1,20,0.26
2013-10-7,84,66,51,52,45,38,77,52,21,30.15,30.02,0,0,6,0.01
2013-10-8,82,68,52,54,50,48,87,57,31,30.07,29.95,2,0,9,0.00
2013-10-9,82,68,53,64,56,50,90,67,45,30.04,29.92,5,0,15,0.00
2013-10-10,84,73,61,67,63,58,93,73,52,30.01,29.85,7,2,14,0.00
2013-10-11,86,77,70,75,71,66,91,82,65,29.91,29.78,3,1,10,0.00
2013-10-12,90,80,74,76,71,-100,94,79,58,30.02,29.86,11,1,23,0.13
2013-10-13,74,70,66,72,69,65,97,96,93,30.12,29.97,11,1,23,5.84
2013-10-14,78,73,71,74,71,70,97,94,84,30.07,29.89,6,1,13,0.22
2013-10-15,83,74,59,73,69,55,97,85,65,29.98,29.83,4,1,13,0.08
2013-10-16,60,57,54,58,55,53,96,94,88,30.06,29.94,5,1,13,0.84
2013-10-17,72,61,51,57,51,48,91,72,44,30.13,29.96,5,1,10,0.09
2013-10-18,71,64,54,64,58,51,94,84,70,29.99,29.86,3,0,7,0.01
2013-10-19,67,57,49,63,44,-100,89,68,38,30.18,29.97,7,2,17,0.01
2013-10-20,72,58,43,52,46,41,94,68,39,30.09,29.90,4,0,13,0.00
2013-10-21,78,66,56,69,60,50,93,82,69,30.04,29.88,6,0,17,0.03
2013-10-22,75,63,53,56,48,40,85,61,29,30.14,30.04,4,1,13,0.02
2013-10-23,81,64,49,52,46,43,81,55,26,30.16,30.06,2,0,12,0.00
2013-10-24,80,67,54,53,49,45,74,55,30,30.20,30.10,2,0,9,0.00
2013-10-25,77,71,52,62,60,49,92,69,57,30.29,30.17,3,1,10,0.00
2013-10-26,79,69,62,66,60,-100,91,78,58,30.20,30.03,7,1,16,0.00
2013-10-27,73,67,63,66,64,60,96,88,73,30.08,29.98,2,0,7,0.32
2013-10-28,80,70,65,70,65,-100,96,85,67,30.06,29.94,6,2,21,0.01
2013-10-29,82,75,69,72,69,66,93,82,65,30.03,29.93,6,3,16,0.00
2013-10-30,82,76,72,75,72,68,96,88,75,30.00,29.76,4,1,14,0.72
2013-10-31,79,70,56,72,59,40,97,75,27,29.86,29.71,3,0,12,3.46
2013-11-1,82,65,51,61,48,39,89,60,22,30.05,29.80,1,0,8,0.01
2013-11-2,73,62,51,47,40,-100,81,50,24,30.27,30.06,5,1,15,0.00
2013-11-3,67,56,43,53,43,38,92,66,34,30.21,30.02,4,0,11,0.00
2013-11-4,66,62,59,63,59,53,93,88,79,30.05,29.95,3,0,10,0.03
2013-11-5,78,70,65,69,67,63,96,90,70,29.99,29.87,5,2,15,0.03
2013-11-6,71,62,51,69,57,44,96,86,67,30.31,29.95,5,1,18,0.43
2013-11-7,63,53,43,45,41,36,85,66,39,30.46,30.31,6,1,14,0.01
2013-11-8,65,57,49,47,43,38,85,62,38,30.39,30.16,4,0,11,0.00
2013-11-9,69,60,54,59,52,-100,90,76,67,30.18,30.09,2,0,9,0.01
2013-11-10,68,64,60,59,57,56,90,80,67,30.29,30.16,2,0,6,0.01
2013-11-11,74,64,51,57,54,48,92,72,52,30.26,30.13,2,0,6,0.00
2013-11-12,59,54,43,55,46,26,93,76,48,30.62,30.22,9,3,19,0.00
2013-11-13,54,43,34,32,28,25,85,56,34,30.66,30.41,5,1,13,0.00
2013-11-14,61,48,31,50,37,28,90,67,39,30.41,30.05,4,1,11,0.00
2013-11-15,76,63,49,60,55,46,93,76,55,30.05,29.85,4,1,12,0.00
2013-11-16,79,70,62,70,64,-100,95,83,68,29.90,29.71,6,2,19,0.00
2013-11-17,87,76,66,72,67,59,94,75,40,29.91,29.73,3,0,11,0.00
2013-11-18,75,67,59,66,59,52,93,77,60,30.08,29.91,4,1,9,0.00
2013-11-19,71,63,55,54,48,44,79,59,41,30.13,29.97,3,1,9,0.00
2013-11-20,71,63,58,65,56,50,95,78,71,30.00,29.86,4,1,11,0.02
2013-11-21,79,73,66,72,70,65,97,90,76,30.01,29.90,6,1,10,0.02
2013-11-22,73,43,35,71,41,33,95,94,85,30.39,30.00,8,3,19,1.06
2013-11-23,42,38,36,40,35,-100,95,92,90,30.48,30.37,8,4,17,0.01
2013-11-24,42,38,34,39,34,30,93,85,70,30.50,30.32,7,3,19,0.15
2013-11-25,39,37,34,38,35,32,96,95,90,30.35,30.10,5,2,16,0.84
2013-11-26,51,43,38,39,35,30,90,75,56,30.36,30.13,4,2,17,0.05
2013-11-27,50,41,34,31,27,22,87,61,35,30.50,30.35,5,1,16,0.00
2013-11-28,54,41,31,34,30,25,89,67,32,30.46,30.35,2,0,8,0.00
2013-11-29,61,46,31,50,40,29,94,79,63,30.52,30.36,4,0,7,0.00
2013-11-30,65,56,50,57,49,-100,87,79,71,30.38,30.17,2,0,7,0.00
2013-12-1,72,63,52,61,57,49,93,82,68,30.19,29.90,3,0,13,0.00
2013-12-2,80,66,54,59,53,41,93,67,25,29.91,29.64,0,0,8,0.00
2013-12-3,84,66,52,57,49,42,93,59,24,29.68,29.56,1,0,5,0.00
2013-12-4,73,64,56,67,59,50,96,85,60,29.77,29.64,3,0,10,0.00
2013-12-5,67,46,33,66,40,26,96,81,66,30.09,29.75,8,3,20,0.01
2013-12-6,36,33,29,32,29,24,93,86,78,30.45,30.06,6,3,18,0.06
2013-12-7,30,28,26,25,21,-100,89,79,75,30.49,30.32,8,3,20,0.01
2013-12-8,48,36,28,40,32,25,91,85,71,30.32,30.04,2,0,6,0.00
2013-12-9,39,37,33,38,36,31,96,95,91,30.40,30.07,6,2,15,0.05
2013-12-10,45,36,28,31,26,22,90,69,43,30.53,30.36,5,1,13,0.01
2013-12-11,57,42,29,35,31,26,91,68,37,30.56,30.34,3,0,9,0.00
2013-12-12,52,42,33,36,33,28,83,70,50,30.60,30.32,3,0,8,0.00
2013-12-13,51,46,43,50,42,35,96,85,72,30.33,29.90,5,0,9,0.12
2013-12-14,51,46,41,50,40,-100,96,82,70,30.34,29.87,4,1,15,0.03
2013-12-15,59,45,35,36,32,29,83,63,37,30.41,30.28,2,0,5,0.01
2013-12-16,66,49,34,37,34,29,85,61,32,30.31,30.19,4,0,13,0.00
2013-12-17,70,52,36,44,38,32,91,63,28,30.32,30.21,2,0,5,0.00
2013-12-18,69,55,40,56,46,37,93,74,54,30.28,30.06,6,1,13,0.00
2013-12-19,74,64,54,63,58,50,92,82,63,30.05,29.77,10,3,22,0.00
2013-12-20,73,68,64,68,65,62,93,88,79,29.81,29.59,10,3,20,0.00
2013-12-21,71,53,45,67,48,-100,96,87,65,29.81,29.56,7,0,15,0.41
2013-12-22,53,45,38,43,38,30,93,78,57,30.37,29.83,3,1,14,0.10
2013-12-23,55,41,32,34,30,28,85,69,40,30.54,30.38,4,0,11,0.00
2013-12-24,57,43,29,38,30,24,93,65,28,30.54,30.28,4,1,12,0.00
2013-12-25,56,47,38,47,42,36,94,83,69,30.40,30.24,2,0,6,0.00
2013-12-26,54,47,38,43,39,34,87,73,60,30.44,30.32,3,0,9,0.00
2013-12-27,56,49,44,43,42,40,91,77,55,30.44,30.31,3,0,9,0.00
2013-12-28,60,48,37,45,38,-100,94,75,48,30.32,30.01,2,0,8,0.00
2013-12-29,65,48,35,53,43,31,94,82,64,30.29,29.97,4,1,14,0.00
2013-12-30,42,37,34,33,29,25,85,72,57,30.42,30.23,6,1,13,0.00
2013-12-31,52,42,35,33,31,28,86,67,40,30.47,30.26,3,0,7,0.00
2014-1-1,65,50,37,52,42,30,89,75,62,30.26,30.00,4,1,16,0.00
2014-1-2,51,43,33,49,29,25,92,60,37,30.46,30.10,8,2,23,0.00